Location: Frydek-Mistek
(49.6830°N, 18.3330°E)
Time: 03:23:53
(UTC+01:00)

ISS - Pass Details

Date: 08 October 2020
Orbit: 417 x 420 km, 51.6° (Epoch: 25 October)

Event Time Altitude Azimuth Distance (km) Brightness Sun altitude
Rises 18:47:02 0° 284° (WNW) 2,368 1.9 -6.9°
Reaches altitude 10° 18:49:37 10° 263° (W) 1,500 0.8 -7.3°
Maximum altitude 18:51:54 17° 221° (SW) 1,141 -1.0 -7.6°
Drops below altitude 10° 18:54:10 10° 178° (S) 1,495 -1.0 -8.0°
Sets 18:56:44 0° 157° (SSE) 2,354 -0.2 -8.4°
